Theta_e
313 312 312 311 311 311 310 310 311 311 313 315 317 317 315 314 316 316 317 318 324 325 322 318 314 311 310 308 308 308 307 307 308 309 310 311 312 312 313 315 317 316 317 319 321 322 323 324 325 325 327 328 328 328 327 327 326 325 325 325 325 324 323 322 322 321 321 320 320 320 321 320 319 318 316 313 310 308 309 310 311 312 312 312 312 312 310
313 312 312 312 313 311 309 310 310 311 312 314 315 316 314 314 316 315 315 319 322 319 316 312 309 308 308 306 307 307 307 307 307 307 308 308 308 309 309 311 314 315 316 318 319 321 322 323 323 324 325 326 325 326 326 327 326 326 325 325 325 324 322 322 322 321 321 320 320 319 319 319 320 318 315 312 309 308 310 311 311 312 312 313 313 313 312
315 314 312 313 313 312 310 310 310 311 312 313 314 314 315 316 318 317 318 321 318 312 309 308 307 307 307 306 306 306 306 307 306 306 307 307 307 308 307 308 312 314 316 317 319 320 321 322 322 323 323 324 323 324 325 325 326 326 325 325 324 323 322 321 321 321 321 320 319 318 317 319 320 318 314 312 309 307 309 311 312 313 313 314 314 313 313
317 315 313 314 313 311 311 312 311 310 312 313 314 314 313 315 318 320 321 321 316 310 308 308 307 307 306 306 306 305 305 306 306 306 306 305 306 307 307 308 310 313 315 316 317 319 319 320 321 321 322 323 322 323 324 323 324 325 325 324 323 322 321 321 321 320 320 320 318 317 318 320 319 315 313 312 310 307 309 311 313 314 315 315 314 314 314
316 314 314 315 314 314 314 312 309 309 311 312 313 314 312 312 315 318 320 318 312 308 308 307 306 306 305 305 304 304 304 304 305 305 305 304 305 305 305 306 308 310 311 311 314 317 317 318 319 320 321 322 321 321 322 322 322 323 323 322 322 321 321 321 321 320 319 319 318 318 319 320 317 313 312 312 310 308 309 311 312 313 315 316 316 314 314
316 313 313 315 317 317 314 310 307 307 309 310 311 313 311 311 313 315 315 312 309 308 308 307 305 305 304 303 303 303 303 304 304 304 304 304 304 305 305 306 307 309 309 310 313 315 315 316 318 319 320 320 319 319 320 321 320 321 321 320 320 320 320 320 320 318 318 318 318 318 319 318 316 314 312 311 310 310 311 312 313 314 316 317 317 317 316
315 313 314 317 318 315 311 308 306 306 308 308 309 310 310 309 311 312 311 309 307 307 307 305 304 303 302 302 302 302 303 303 303 303 304 304 303 303 304 306 308 308 309 311 312 312 312 313 315 317 318 318 318 318 319 319 319 319 319 319 319 319 318 318 318 318 318 318 318 318 318 317 317 316 313 312 313 314 315 315 316 318 318 318 318 318 318
313 313 314 316 315 311 309 308 306 306 307 307 308 311 310 308 310 310 308 307 306 305 304 303 302 302 301 301 301 302 302 303 303 303 303 304 304 303 303 305 306 306 307 308 309 310 310 310 311 313 314 315 315 315 315 316 316 316 317 316 316 316 316 316 316 317 318 317 317 317 317 318 318 318 316 316 317 317 318 318 319 319 319 319 318 319 319
312 314 314 313 313 311 308 308 306 305 305 305 307 310 310 308 308 308 306 305 305 304 303 303 302 302 303 302 300 300 302 303 303 304 304 304 305 305 305 305 305 305 306 306 307 308 308 308 308 309 311 312 313 312 312 312 313 313 315 315 314 314 314 314 314 314 314 314 314 316 316 317 318 318 316 316 317 317 318 319 319 319 318 317 317 317 317
310 313 313 312 314 313 309 306 305 304 304 303 304 308 309 307 307 307 305 304 304 304 304 303 303 304 304 302 300 299 300 301 302 303 303 304 305 305 305 306 305 306 306 306 307 307 307 307 307 307 309 310 311 310 310 310 310 311 312 312 312 312 312 312 312 312 312 312 312 313 315 316 316 315 314 314 315 315 316 316 317 317 316 316 316 315 315
309 311 312 312 312 311 307 305 304 303 303 302 303 309 311 306 305 307 305 304 304 304 304 304 305 306 305 302 299 299 300 300 301 302 302 302 303 304 304 304 304 305 305 306 306 306 307 307 307 307 308 309 309 309 308 309 309 309 309 309 309 309 309 309 310 311 312 312 310 309 310 312 312 312 312 312 313 314 313 313 313 313 313 313 313 313 313
308 309 310 309 309 308 306 304 303 303 303 302 306 313 312 305 304 306 305 304 305 304 304 304 304 304 303 300 298 299 300 300 300 301 301 301 301 302 302 302 302 303 303 303 304 304 305 305 306 307 308 308 308 308 308 309 309 308 307 307 307 307 307 307 307 308 309 310 309 308 307 307 306 307 307 308 309 310 310 310 311 312 312 311 311 311 309
307 308 309 308 308 306 304 303 303 302 303 306 310 312 308 303 303 305 304 304 305 304 304 304 302 300 300 300 299 300 300 300 300 300 300 300 301 300 300 300 300 300 300 300 301 301 301 302 303 304 305 306 306 305 306 306 305 304 304 303 303 303 304 305 305 305 304 305 305 305 305 305 304 304 304 304 304 304 305 306 307 309 310 309 310 310 309
305 306 308 308 307 305 302 302 303 303 306 310 309 305 303 302 304 304 304 304 304 302 301 300 299 299 300 300 300 300 300 300 300 299 299 300 300 300 300 300 300 300 299 299 299 299 300 300 300 301 302 302 302 303 303 302 301 300 300 300 300 300 301 302 302 302 301 301 301 301 302 302 302 302 302 301 301 301 302 303 303 303 304 304 305 306 306
304 306 307 308 308 305 302 302 304 305 306 307 304 301 302 303 304 304 303 302 302 301 300 298 299 299 299 299 300 300 300 300 300 300 300 300 300 300 300 300 300 300 299 299 299 299 299 299 299 299 300 300 300 301 301 299 299 298 298 298 298 298 298 299 299 299 299 299 299 299 299 299 299 299 299 299 299 299 299 300 300 300 300 300 300 300 301
305 307 307 306 305 303 301 302 303 303 302 302 302 301 302 303 303 303 302 300 300 301 300 299 299 300 299 300 300 300 300 300 300 300 300 300 299 300 299 300 300 299 299 299 299 299 299 299 299 299 299 299 299 299 299 298 297 297 297 297 297 297 297 297 297 297 297 297 297 298 298 298 298 298 298 298 298 298 298 298 298 298 298 298 298 299 298
303 305 304 303 302 301 301 301 301 301 301 302 302 302 302 302 303 302 301 300 300 301 300 300 300 300 300 300 300 300 300 300 300 300 300 300 300 299 299 299 299 299 299 299 299 299 299 299 299 299 298 298 298 298 297 297 297 296 296 296 296 296 297 296 296 297 297 297 297 297 297 297 297 297 297 298 298 298 298 298 298 298 298 298 298 298 298
302 302 302 301 301 301 301 301 301 301 302 302 302 302 302 302 302 302 301 301 300 300 300 300 300 300 300 299 299 299 299 300 300 300 300 300 300 299 299 299 299 299 299 299 299 299 299 299 299 299 298 298 298 297 297 296 296 296 296 296 296 296 296 296 296 296 296 296 296 296 297 297 297 297 297 297 297 297 297 297 298 298 298 298 298 298 298
302 303 302 301 301 301 301 301 301 301 302 302 302 302 302 301 302 302 302 301 300 300 300 299 299 300 300 299 299 299 299 299 299 299 299 299 299 298 299 299 299 299 299 299 299 299 299 299 299 299 298 298 298 297 297 296 296 295 295 295 296 296 296 296 296 296 296 296 296 296 296 296 297 297 297 297 297 297 297 297 297 297 297 298 297 298 298
302 302 301 300 301 301 301 302 302 301 302 302 302 302 302 302 302 302 302 302 301 300 300 300 300 300 300 299 299 299 299 299 299 298 298 298 297 297 298 298 298 298 298 299 299 299 299 299 298 298 298 298 298 297 297 296 296 296 295 295 295 295 295 295 295 295 295 296 296 296 296 296 296 297 297 297 297 297 297 297 297 297 297 297 297 297 297
302 301 301 302 302 302 301 301 301 301 302 302 302 303 303 303 302 302 302 302 302 301 301 301 300 300 300 300 300 299 299 299 299 298 297 297 297 297 297 297 297 298 298 298 298 298 298 298 298 298 298 298 298 297 297 296 296 296 295 295 295 295 295 295 295 295 295 295 296 296 296 296 296 296 296 296 296 296 296 296 296 296 296 296 296 297 296
302 302 302 302 302 303 302 301 301 302 302 303 303 303 303 302 302 302 302 302 301 301 301 301 301 300 300 300 300 300 299 299 298 298 297 297 297 297 297 297 297 298 298 298 298 298 298 298 297 297 297 298 298 297 297 297 297 296 296 295 295 295 295 295 295 295 295 295 295 296 296 296 296 296 296 296 296 296 296 296 296 296 296 296 296 296 296
302 302 301 301 302 303 302 301 301 302 302 303 302 302 302 302 301 301 301 301 301 301 301 301 301 300 300 300 300 299 299 298 298 297 297 297 296 296 296 296 297 297 298 298 298 298 297 297 297 296 296 297 298 297 297 297 297 296 296 296 295 295 295 295 295 294 295 295 295 295 295 295 295 295 295 295 295 295 295 295 295 295 296 296 296 296 296
301 301 301 301 302 302 302 302 302 302 302 302 301 301 301 301 300 300 300 300 300 301 301 301 301 300 300 300 299 299 298 298 297 297 297 296 296 296 296 296 296 297 297 297 297 297 296 295 295 296 296 297 298 297 297 297 297 297 297 296 296 296 296 295 295 294 295 295 295 294 294 294 295 295 295 295 295 295 295 295 295 296 296 296 297 297 297
301 301 301 301 302 302 301 302 301 301 301 300 300 300 300 299 299 299 300 300 300 300 300 300 300 300 300 299 299 298 297 297 296 296 296 296 295 295 295 296 296 296 296 296 296 295 294 293 293 294 296 297 297 297 297 296 296 297 297 296 296 296 296 295 295 294 295 295 294 294 294 294 294 295 295 295 295 295 296 296 296 297 297 297 297 297 297
301 301 301 301 301 301 300 300 300 300 299 299 298 299 298 298 298 298 298 299 299 299 299 299 299 299 299 299 298 297 297 297 296 296 296 296 295 295 295 295 295 295 295 294 294 294 294 293 293 293 295 296 297 297 296 296 296 296 296 297 296 296 296 295 294 294 295 295 294 294 294 294 294 294 294 295 295 295 296 297 297 297 297 297 297 297 297
301 301 301 301 301 300 300 300 300 300 299 299 298 298 298 297 297 297 297 297 297 298 298 299 299 299 299 298 297 297 297 296 296 296 296 295 295 295 295 295 295 294 295 294 294 294 294 294 293 294 295 297 297 297 297 296 297 297 296 297 296 296 296 295 294 294 295 295 294 294 294 294 294 294 295 295 295 296 296 297 296 296 297 297 297 297 297
301 301 301 301 301 301 301 301 300 300 299 299 298 298 298 297 297 297 297 297 297 297 297 298 298 298 298 298 297 297 296 296 296 296 295 295 295 295 295 295 295 295 295 295 294 294 294 293 293 294 296 297 297 297 297 297 297 297 297 297 296 296 296 295 294 294 295 295 294 294 294 294 294 294 295 295 295 296 296 296 296 296 296 296 296 297 297
301 300 300 300 300 300 300 300 300 300 299 298 298 298 298 297 297 297 297 297 297 297 297 297 297 298 298 297 297 296 296 296 296 295 295 295 295 295 295 295 295 295 295 295 294 294 294 293 292 293 296 297 297 297 297 297 297 297 296 296 296 296 296 295 294 294 295 295 294 294 294 294 294 295 295 295 295 295 295 295 295 296 296 296 296 296 296
300 300 300 300 299 299 299 299 299 299 298 298 298 298 297 297 297 297 297 297 297 297 297 297 297 297 297 297 296 296 296 295 295 295 295 295 295 295 295 295 295 295 295 295 294 294 293 292 291 292 295 297 297 297 297 297 297 297 296 296 296 295 296 295 294 294 295 295 294 294 294 294 295 295 295 295 295 295 295 295 295 295 296 296 296 296 297
300 300 300 299 299 298 298 298 299 298 298 298 298 297 297 297 297 297 297 297 297 297 297 297 297 297 297 296 296 295 295 295 295 295 295 294 295 295 294 294 293 293 293 293 293 293 292 291 290 291 294 296 297 296 297 297 297 297 296 296 296 296 296 295 294 294 295 295 294 294 294 295 295 295 295 295 295 294 294 295 295 295 296 296 296 296 296
299 299 299 299 298 298 298 298 298 298 298 297 297 297 297 297 297 297 297 297 297 297 297 296 296 296 296 296 295 295 295 295 295 294 294 294 294 293 293 293 293 293 292 292 291 291 290 290 289 290 294 296 297 296 297 297 297 297 297 296 296 296 295 294 293 294 295 295 294 294 294 294 295 295 295 294 294 294 294 294 295 295 295 295 295 295 295
298 298 298 298 298 298 298 298 298 297 297 297 297 297 297 297 297 296 296 296 296 297 296 296 296 296 296 295 295 295 295 295 294 294 294 293 293 293 294 294 294 294 294 293 292 291 291 290 289 291 293 296 296 297 297 297 297 297 297 297 296 296 295 294 293 294 295 295 295 295 294 293 294 295 294 294 294 293 293 294 294 294 294 294 294 294 294
298 298 298 298 298 298 298 298 298 297 297 297 296 296 297 297 297 297 296 296 296 296 296 296 296 296 296 295 295 295 295 295 294 294 293 292 292 294 295 295 294 294 294 293 293 293 293 293 292 292 293 295 296 297 297 297 297 297 297 296 296 296 295 293 293 294 295 295 295 295 295 294 294 294 294 293 293 293 293 294 294 294 294 294 294 294 294
297 297 298 298 298 298 298 298 298 297 297 296 296 296 297 297 297 297 296 296 297 296 296 296 296 296 296 295 295 295 295 294 294 294 292 291 293 295 295 294 294 294 294 293 293 293 294 294 294 293 294 295 297 297 297 297 297 297 297 296 296 295 294 292 292 294 295 295 295 295 295 294 294 294 293 293 293 293 293 294 294 293 293 294 294 294 294
298 298 298 298 298 298 298 298 298 298 297 296 296 297 297 297 297 297 296 296 297 297 296 296 296 296 296 295 295 295 295 294 294 293 291 292 293 295 295 295 295 295 294 294 294 294 294 294 294 294 294 296 297 297 297 297 297 297 297 296 296 295 294 292 292 294 295 294 294 295 295 294 294 294 293 293 293 293 293 293 293 293 293 293 294 294 294
298 298 298 298 298 297 298 298 298 297 297 297 297 297 297 297 297 297 296 296 296 296 297 296 296 296 296 296 295 295 295 294 293 293 292 292 293 294 295 294 293 294 295 295 295 295 294 294 294 295 295 296 297 297 297 297 296 296 296 296 295 294 293 292 293 293 294 294 294 295 294 294 294 294 294 293 293 292 292 293 293 293 293 293 293 294 294
298 298 297 297 297 297 297 297 297 297 297 297 297 297 297 297 297 297 296 296 296 296 296 296 296 296 296 296 295 295 295 294 293 293 293 291 291 292 294 293 293 294 296 296 296 296 295 295 295 296 296 297 297 297 297 296 295 296 296 296 295 294 293 293 292 292 293 294 294 294 294 294 294 294 294 293 292 292 292 292 292 292 292 292 292 293 294
298 298 298 297 297 297 297 297 297 297 297 297 297 297 297 297 297 297 297 296 296 296 296 296 296 296 296 296 295 295 295 294 293 293 293 291 290 291 292 292 293 295 296 296 296 296 296 296 297 297 297 297 297 297 295 295 295 295 296 295 295 294 294 293 292 291 292 294 294 293 293 293 294 294 293 292 292 292 292 292 292 292 292 292 292 293 293
298 298 298 298 297 297 297 297 297 297 297 297 297 297 297 297 297 297 297 296 296 296 296 296 296 296 296 296 295 295 295 294 293 293 293 292 291 291 291 291 292 294 296 296 296 296 297 297 297 297 296 295 294 293 293 293 293 294 295 295 295 294 294 294 292 291 291 293 294 293 293 293 293 293 292 292 291 291 292 291 291 292 292 293 293 293 293
297 298 298 298 298 297 297 297 297 297 297 297 297 297 297 297 297 297 297 297 297 296 297 297 297 296 296 296 295 295 295 294 294 293 293 292 291 290 290 291 291 292 294 296 296 296 297 297 296 294 293 292 291 291 291 291 291 292 294 295 295 295 294 294 293 291 291 292 294 294 293 293 292 292 292 291 291 291 292 292 292 292 293 293 293 292 292
298 298 298 298 298 298 297 297 297 297 297 297 297 297 297 297 297 297 297 297 297 297 297 297 297 297 297 296 296 295 295 294 294 293 293 292 291 291 291 291 291 291 292 294 295 296 296 296 294 293 293 292 292 291 291 291 291 293 294 295 295 295 295 294 293 292 291 292 293 294 293 293 293 292 292 291 291 291 292 292 292 292 292 293 292 292 292
298 298 298 298 298 298 297 298 298 298 298 297 297 297 297 297 297 297 297 297 297 297 297 297 297 297 297 297 296 296 295 295 294 294 293 292 292 291 291 291 291 291 291 292 293 293 294 294 294 293 293 293 292 290 290 290 291 293 295 295 295 295 295 294 294 293 292 291 292 293 293 293 293 292 291 291 291 291 292 292 292 292 292 293 292 292 292
297 297 297 298 298 297 298 298 297 297 298 298 297 297 297 297 297 297 297 297 297 297 297 297 297 297 297 297 296 296 295 295 294 294 293 293 292 292 291 291 291 291 291 291 292 292 292 293 293 293 293 292 291 290 289 289 290 292 294 295 295 295 295 294 294 293 293 291 291 291 292 293 293 293 292 291 291 291 292 292 292 292 292 292 292 292 292
297 297 297 297 297 297 297 297 297 297 297 297 297 297 297 297 297 297 297 297 297 297 297 297 297 297 297 297 296 296 295 295 295 294 294 294 293 292 291 291 290 291 291 291 291 291 291 292 292 292 292 292 292 290 289 289 290 291 293 294 295 295 295 295 294 293 293 292 291 290 290 291 293 293 293 292 291 292 292 291 291 292 292 292 292 292 292
297 297 297 297 297 297 297 297 297 297 297 297 297 297 297 297 297 297 297 297 297 297 297 297 297 297 297 297 297 296 295 295 295 295 294 294 293 292 291 291 291 291 291 291 291 290 290 291 291 292 291 292 292 291 289 288 289 290 292 293 294 294 295 295 294 293 293 293 292 290 289 289 291 293 293 293 292 292 292 291 291 291 292 292 292 292 292
297 297 297 297 297 297 297 297 297 297 297 297 297 297 297 297 297 297 297 297 297 297 297 297 297 297 297 297 296 296 295 295 295 295 294 294 294 293 292 291 291 291 291 291 291 290 289 289 290 291 291 292 292 291 289 288 288 289 291 293 294 294 294 294 294 293 292 292 292 291 290 289 289 291 292 293 293 292 292 292 292 292 291 291 292 292 292
297 297 297 297 297 297 297 297 297 297 297 297 297 297 297 297 297 297 297 297 297 297 297 297 296 296 296 297 296 296 296 295 295 295 295 295 294 294 292 291 290 290 291 291 290 289 288 287 289 290 291 291 291 290 289 288 288 289 290 292 294 294 294 294 293 292 291 291 292 291 290 289 289 289 290 292 293 293 292 292 292 292 291 291 291 291 291
297 297 297 296 296 297 297 297 297 297 297 297 297 297 297 297 297 297 297 297 297 297 296 296 296 296 296 296 296 296 296 296 296 295 295 295 295 294 293 291 290 289 289 289 288 288 287 287 287 288 288 288 288 288 288 287 288 290 291 292 293 293 293 293 292 291 290 290 291 291 291 290 289 288 289 290 291 292 292 292 292 292 292 292 291 291 291
297 296 296 296 295 296 296 297 297 296 296 297 297 297 296 297 297 296 296 297 297 296 296 296 296 296 296 296 296 296 296 296 296 296 296 295 295 294 293 292 290 290 289 289 288 287 287 287 287 287 287 286 286 287 287 287 289 291 292 292 292 291 291 291 290 289 289 289 290 290 290 289 289 288 288 289 289 290 291 292 292 292 292 292 291 291 290
296 296 295 295 295 295 296 296 296 296 296 296 296 296 296 296 296 296 296 296 296 296 296 296 296 296 296 296 296 296 296 296 296 296 296 295 295 294 293 292 291 291 291 291 290 289 288 287 287 287 287 287 287 287 287 287 289 290 290 290 289 289 288 288 288 288 288 288 289 290 290 289 289 288 288 288 288 288 289 290 291 291 291 291 290 290 290
295 295 295 295 295 295 296 296 296 296 296 296 296 296 296 296 296 296 296 296 296 296 296 296 296 296 296 296 296 295 296 296 295 296 295 295 295 295 294 293 292 291 292 292 292 292 291 289 288 287 287 287 287 287 287 288 289 289 289 288 287 287 287 287 287 287 287 287 288 288 289 289 288 288 288 288 288 288 288 288 288 289 289 289 289 289 289
Wind_Speed
3 3 2 2 3 4 5 8 8 9 11 9 5 3 6 5 2 2 1 2 4 6 7 7 7 7 9 9 10 11 11 11 12 13 14 14 13 13 13 12 12 12 14 18 21 20 19 19 20 21 23 23 22 23 24 27 28 26 25 26 26 26 25 22 20 20 20 20 18 17 16 14 12 11 11 10 9 10 11 12 12 11 9 8 8 7 8
4 3 3 4 5 4 5 9 10 9 8 9 9 7 7 6 3 1 2 4 4 4 5 8 9 9 11 12 11 12 12 12 13 14 13 14 14 14 14 14 15 16 16 18 22 24 22 20 20 21 24 24 22 22 26 29 30 29 28 28 27 26 26 25 24 24 23 21 20 18 15 12 10 11 11 11 11 12 14 14 13 11 9 8 8 8 8
3 2 3 3 4 5 5 9 12 11 9 8 8 7 6 6 2 2 6 6 5 6 6 11 12 11 12 12 12 13 12 11 14 16 15 14 15 16 16 16 17 19 18 19 21 23 23 21 20 20 22 22 19 19 23 28 31 31 30 30 30 29 27 27 26 25 23 21 20 21 20 15 12 13 14 13 13 14 15 15 14 12 10 9 9 9 9
3 2 2 2 5 6 5 9 12 12 9 6 6 5 5 5 4 3 6 4 2 3 7 11 12 12 12 12 12 13 12 12 14 16 16 15 15 15 16 17 18 20 22 23 23 24 24 21 20 20 20 20 19 19 23 26 28 29 30 30 30 29 28 27 26 24 23 22 20 20 20 16 13 15 16 16 15 15 16 16 14 12 10 8 9 9 9
3 2 2 1 2 4 2 5 8 7 6 6 5 5 6 8 6 1 2 2 5 6 7 10 11 11 12 12 13 12 12 12 13 16 16 15 15 16 16 18 19 20 22 25 26 26 25 23 21 20 19 20 22 23 24 25 25 26 28 28 28 27 26 25 24 23 21 21 21 19 17 16 15 15 16 16 15 15 16 15 14 13 10 8 8 9 9
1 2 2 1 2 2 1 2 5 5 4 5 5 4 8 10 5 1 2 4 8 7 5 9 11 11 12 14 14 13 11 11 14 16 17 17 19 21 21 21 22 20 20 23 24 26 28 27 25 23 21 22 24 24 23 23 22 23 23 24 25 24 22 21 21 20 19 18 18 18 17 16 16 16 16 16 16 15 14 13 13 12 11 9 9 9 10
1 2 1 3 3 2 1 2 5 5 3 5 3 1 7 12 6 4 8 8 8 8 9 13 16 17 17 18 18 16 13 13 15 17 17 19 22 25 26 26 24 23 22 22 23 25 28 29 28 27 26 26 26 24 22 21 22 22 22 23 23 23 21 19 18 17 16 15 16 17 17 17 17 17 16 16 15 15 14 13 12 11 10 9 9 10 11
1 3 1 2 3 1 1 1 6 7 3 5 4 1 6 12 7 3 9 9 9 12 14 15 18 22 24 23 21 18 15 15 18 18 18 21 24 26 29 29 28 27 26 26 26 25 26 28 28 29 29 29 28 28 26 25 25 25 25 25 24 24 23 21 18 17 15 15 15 16 16 16 16 16 16 15 15 14 13 13 12 10 10 9 9 9 9
0 2 3 3 4 2 3 2 5 5 4 5 4 2 4 10 6 4 8 9 11 15 16 18 19 22 23 19 17 17 16 15 18 20 21 23 25 25 26 27 27 27 27 27 27 26 25 26 27 27 27 27 28 29 28 27 27 26 24 23 22 22 22 21 19 17 16 15 15 14 13 13 14 14 14 14 15 14 13 14 13 12 11 9 8 7 7
0 2 4 3 2 2 3 5 5 4 4 6 5 2 2 8 7 6 9 9 12 14 16 17 15 13 13 9 8 13 16 15 17 20 21 22 23 23 22 23 23 24 24 24 25 25 25 25 25 24 23 23 24 26 26 25 24 24 23 21 19 18 19 17 16 15 14 13 13 12 11 11 12 12 10 9 11 12 12 12 12 12 10 9 8 7 7
1 2 4 2 2 2 4 8 8 8 7 4 3 2 1 7 8 6 10 10 11 11 12 12 7 3 6 5 3 9 15 17 19 20 19 20 21 20 21 21 22 22 22 22 22 22 23 24 23 21 20 21 23 24 24 22 22 22 22 20 17 16 16 15 14 13 10 9 9 8 8 8 8 7 5 5 7 8 7 7 8 8 8 8 9 8 7
2 3 4 3 2 2 5 9 12 13 7 2 3 1 2 6 7 5 9 9 9 8 9 10 6 4 6 7 6 10 16 20 22 22 19 19 19 19 20 21 21 22 22 22 22 21 21 21 19 18 17 18 20 21 20 19 19 18 18 16 14 13 12 11 11 10 8 6 5 4 4 4 4 3 2 3 4 5 5 6 7 8 9 9 8 7 6
3 4 5 3 2 2 5 12 15 12 3 3 1 2 2 5 2 7 7 5 5 5 8 13 12 11 14 16 14 16 18 21 23 23 19 17 17 19 20 20 21 22 23 23 23 23 22 20 18 16 15 16 18 18 17 16 17 16 15 13 11 10 9 8 7 7 6 5 4 3 1 1 1 1 0 1 2 3 4 6 7 8 11 11 10 10 10
2 3 3 2 2 2 10 18 16 7 0 1 2 3 3 2 5 9 7 6 10 13 17 22 24 23 23 23 21 20 19 21 22 21 17 16 17 17 18 19 19 21 23 23 23 22 20 19 17 15 14 16 17 17 16 17 17 15 13 11 10 9 8 7 6 5 5 4 4 3 2 2 2 2 3 2 2 3 4 6 7 7 9 10 10 12 14
1 2 3 3 2 4 16 20 10 4 4 2 2 4 3 5 9 11 12 13 18 23 26 26 26 25 23 23 23 22 21 21 20 17 15 15 15 16 17 17 17 19 21 22 22 22 19 18 16 14 13 15 16 16 17 18 16 14 13 11 10 9 8 8 7 7 6 5 5 5 4 3 3 4 4 4 4 4 5 6 7 8 9 10 11 12 13
2 3 4 3 1 8 16 13 4 4 7 2 1 3 7 10 10 13 16 17 21 27 29 26 25 24 23 23 22 20 19 18 16 14 13 14 14 14 14 15 14 16 18 20 20 20 18 17 16 14 13 14 15 16 17 17 15 14 13 11 10 10 9 9 9 8 8 7 6 6 6 5 5 5 5 5 5 5 6 6 7 8 9 10 11 12 13
4 5 4 2 2 7 10 8 5 5 6 6 7 9 12 12 11 14 19 21 24 27 29 28 27 25 22 21 19 17 16 14 13 13 13 13 13 13 12 12 11 12 14 16 17 17 17 16 16 16 15 14 15 17 17 15 14 13 12 11 11 11 10 10 10 9 9 8 8 8 7 6 6 6 6 7 7 7 8 8 8 9 10 11 11 13 14
5 8 7 5 6 8 9 8 8 9 11 13 13 15 17 15 15 18 22 25 26 27 28 29 28 25 22 20 19 16 15 14 13 13 13 12 11 10 10 10 9 10 11 11 12 13 14 14 14 15 15 15 16 16 15 13 13 12 11 11 11 11 11 11 10 10 9 9 9 9 9 8 8 8 8 8 8 8 8 9 9 10 11 12 12 13 14
3 5 7 7 7 9 9 9 11 14 16 16 17 18 19 18 19 21 22 24 25 25 26 27 26 23 21 20 19 18 16 15 14 13 12 11 10 10 9 9 8 8 8 9 9 10 11 12 13 13 13 14 14 13 12 12 12 11 10 11 11 12 12 11 11 10 9 9 9 9 9 9 8 8 8 9 9 8 8 8 9 9 10 11 12 13 14
3 3 4 6 9 11 10 10 12 14 17 19 19 21 22 21 20 20 20 21 22 22 23 23 23 22 20 19 18 17 14 14 14 13 12 12 11 10 10 8 7 7 7 8 8 9 10 11 11 11 12 12 12 11 10 10 10 9 10 11 11 12 13 13 13 12 12 11 10 10 9 9 9 9 8 8 9 8 8 8 9 9 10 11 12 13 13
5 4 4 6 9 10 10 11 13 14 17 19 19 20 20 20 19 18 17 16 17 18 19 19 20 19 18 16 15 13 12 12 12 11 11 11 11 10 9 8 7 7 7 7 7 8 9 9 9 9 9 9 8 8 8 8 8 8 8 9 10 11 11 12 13 13 13 12 12 11 10 10 9 8 7 7 7 7 8 8 9 9 10 10 11 11 11
5 3 4 4 5 6 6 8 12 15 17 18 18 18 17 17 17 17 16 15 14 14 14 15 15 16 15 13 11 10 11 11 10 9 9 9 9 8 7 7 6 6 6 6 6 6 7 8 7 8 7 5 5 5 5 6 7 7 7 9 9 10 10 11 12 13 13 13 13 12 11 10 8 7 7 6 7 7 8 9 9 9 9 9 9 10 10
5 5 7 7 7 7 7 9 12 14 13 14 15 15 14 14 13 13 13 13 12 11 10 10 10 11 12 12 10 10 10 9 7 7 7 7 7 7 6 5 5 4 4 5 5 5 5 5 5 6 6 2 2 4 4 5 6 7 7 8 9 10 11 12 13 14 15 14 14 14 12 9 7 5 5 5 6 7 7 7 8 9 10 10 11 11 11
7 8 9 10 10 10 10 10 12 11 10 10 12 12 11 11 10 9 8 8 8 9 8 8 7 6 8 10 9 8 7 7 6 5 5 5 6 5 5 4 3 3 2 2 3 3 4 5 5 4 4 0 3 3 3 4 5 6 6 7 9 11 11 12 13 15 15 14 14 14 12 9 6 4 3 4 5 5 5 6 7 8 9 10 10 10 11
9 10 11 12 13 14 13 12 11 10 9 9 10 10 10 9 8 7 5 5 5 5 5 6 7 7 7 8 7 6 5 5 5 4 3 4 4 4 3 2 2 2 2 2 2 2 4 6 5 3 2 2 4 3 2 3 5 6 6 7 9 10 11 12 14 15 15 13 13 14 12 8 6 5 5 5 6 6 6 5 6 7 7 8 8 9 9
12 13 14 15 14 13 12 10 9 8 8 8 8 9 9 9 8 8 7 5 5 4 4 4 5 7 8 6 4 3 3 3 3 2 3 3 3 3 2 2 1 1 2 3 4 4 6 8 6 4 3 3 5 4 1 1 3 5 5 6 8 10 10 12 13 14 13 12 12 12 11 9 7 6 6 7 7 7 7 6 7 7 7 8 8 8 8
13 14 13 11 9 8 8 7 6 6 5 5 6 7 8 8 7 7 8 7 6 5 4 3 3 5 6 4 2 2 1 1 2 2 3 3 3 1 1 1 2 3 4 5 6 6 7 8 6 2 3 4 6 6 2 0 2 4 5 5 7 9 9 10 12 13 12 10 9 10 11 9 8 8 8 8 8 7 7 8 8 9 8 8 7 7 8
11 9 7 6 6 6 5 5 4 4 4 4 4 5 6 6 5 5 6 6 5 4 3 3 3 3 4 3 2 1 1 1 2 3 3 3 3 3 3 5 6 7 7 8 8 8 9 9 5 2 5 5 6 6 3 1 1 3 4 5 6 8 9 10 11 12 11 9 8 9 10 10 9 8 8 9 9 8 9 9 10 10 9 8 7 7 8
7 5 4 5 6 5 4 4 5 4 3 3 3 2 3 3 3 3 3 2 3 2 1 1 3 4 5 4 2 1 2 2 3 3 3 4 5 6 7 8 10 11 11 11 11 11 10 9 6 4 7 7 7 6 4 2 2 2 3 4 6 8 9 10 11 12 11 9 7 7 8 8 8 8 8 9 9 9 9 9 10 11 11 10 9 8 7
3 3 3 4 4 3 2 2 3 4 3 3 2 1 0 1 2 2 2 1 1 1 1 2 3 4 5 4 3 2 3 4 4 4 4 6 7 8 10 11 12 14 14 14 14 13 13 12 8 5 8 9 8 7 5 3 2 3 3 5 6 8 9 10 11 11 9 8 6 5 6 6 6 6 7 8 9 9 9 9 10 11 11 11 11 10 10
3 2 3 3 2 2 2 1 1 3 3 4 4 4 3 3 4 4 4 4 4 3 3 3 3 4 4 3 3 3 4 4 4 4 6 8 9 11 13 14 15 16 16 17 16 16 15 13 9 6 9 10 8 7 6 3 2 3 3 5 7 8 9 10 11 10 8 7 5 3 3 4 5 5 5 7 9 9 10 10 10 10 10 10 10 11 12
4 4 3 3 1 1 3 3 3 3 4 4 3 3 3 4 5 6 6 6 5 4 4 4 4 4 4 3 2 3 3 4 4 6 8 10 12 14 15 15 16 16 16 17 17 16 16 14 10 7 10 12 10 8 6 4 2 3 3 4 6 7 9 10 10 9 7 6 5 3 2 2 3 4 5 7 9 10 11 10 9 8 8 9 10 11 12
4 3 1 1 1 2 4 4 4 4 3 2 2 3 4 5 7 8 8 7 4 3 3 3 4 5 5 4 2 2 3 4 5 7 9 12 14 15 14 14 14 13 14 15 15 14 14 13 9 9 11 14 12 9 7 4 3 3 2 4 6 7 8 9 10 9 7 6 5 4 2 1 2 3 5 7 9 11 11 9 6 7 8 9 10 11 12
3 2 3 2 2 3 3 3 3 2 1 1 1 2 3 6 8 8 7 6 3 1 1 2 4 5 5 4 3 3 4 5 6 8 12 15 14 13 12 12 12 12 13 12 12 14 14 13 10 10 13 15 14 10 7 5 4 3 2 3 5 6 8 9 9 8 8 7 6 5 5 3 1 1 4 6 9 12 11 6 6 8 8 9 10 11 11
2 2 3 4 4 4 4 2 2 2 2 1 1 2 4 7 8 7 6 5 2 1 2 4 5 5 5 4 4 4 5 6 7 9 13 14 12 10 11 12 12 13 13 11 8 10 12 13 12 11 14 16 14 10 7 5 4 3 3 3 4 5 7 8 8 8 8 8 7 6 6 4 3 1 3 6 8 11 10 5 7 8 9 9 11 12 12
3 4 5 6 6 6 5 4 3 4 3 3 3 4 5 7 8 6 6 5 3 3 3 4 5 6 5 5 4 5 5 6 7 9 12 12 10 9 10 11 12 12 10 8 7 6 5 8 10 12 15 15 13 9 7 6 5 4 3 2 3 4 6 8 8 8 9 9 8 6 3 2 4 2 3 5 7 10 9 4 7 9 9 9 10 11 12
5 6 6 6 6 6 6 5 5 5 4 4 4 4 5 7 7 7 6 6 4 4 4 5 6 7 6 6 6 6 6 6 6 8 11 11 9 8 9 10 10 9 8 6 4 2 3 6 9 12 13 12 10 8 7 6 5 4 3 1 2 3 6 7 8 7 9 9 8 5 2 4 6 4 3 3 6 9 7 5 7 8 8 7 8 10 12
6 6 6 5 5 5 4 4 4 4 4 4 4 5 6 7 7 7 7 6 5 5 5 5 7 7 7 7 7 7 6 6 5 7 10 11 9 8 8 9 8 7 5 3 3 4 7 8 9 10 10 9 8 7 7 7 6 5 3 1 1 2 5 7 8 7 8 8 6 3 2 4 6 4 3 3 5 7 5 4 7 7 7 8 9 11 12
6 6 6 6 5 5 5 4 4 4 4 5 6 7 7 7 7 7 7 7 6 5 5 6 7 8 8 8 8 7 6 6 5 6 9 10 10 8 8 8 7 6 3 3 4 6 7 7 8 7 7 6 6 7 7 8 7 5 3 3 1 1 5 7 8 8 7 6 5 3 2 4 5 3 2 3 5 6 4 5 7 8 9 10 11 11 11
6 6 6 7 6 6 5 5 5 6 7 8 8 8 8 7 7 7 7 8 8 7 6 6 7 7 8 9 8 7 6 6 6 6 8 9 10 9 8 7 6 5 3 2 3 4 5 5 5 4 4 4 6 7 7 8 8 6 5 4 2 1 3 6 8 9 7 5 4 4 3 4 4 2 1 3 4 4 4 7 9 9 11 12 12 11 11
8 8 8 9 9 8 8 8 8 8 8 9 9 9 9 9 8 8 8 9 9 9 8 7 7 7 7 8 8 7 7 7 6 6 7 8 9 10 9 7 6 5 3 1 2 3 4 4 3 3 3 3 4 5 5 5 6 6 6 6 3 1 2 4 7 8 7 5 4 4 3 3 3 1 2 2 2 3 7 8 9 10 11 12 11 11 10
9 9 10 10 10 10 10 10 10 10 10 9 10 10 10 9 9 9 9 9 9 10 10 9 8 7 8 8 8 9 9 7 6 6 7 7 8 9 8 7 6 5 4 2 2 3 3 4 5 5 4 4 5 5 5 4 4 5 7 6 4 2 3 4 6 7 7 5 4 4 4 3 2 2 2 0 3 6 7 8 8 8 9 9 9 10 9
10 10 11 11 10 10 11 11 11 10 10 10 10 10 9 9 9 9 9 10 10 11 11 11 10 10 9 8 8 8 8 6 5 5 6 7 8 8 7 6 5 5 4 3 3 4 4 5 6 7 7 6 7 7 7 5 4 5 6 7 5 3 3 3 4 6 7 5 3 3 3 2 1 2 2 3 7 7 6 7 8 7 7 6 7 8 8
11 12 11 11 11 11 11 10 10 10 10 10 11 11 11 10 9 10 10 10 10 11 12 12 11 10 9 8 8 7 6 5 4 5 6 7 8 7 6 5 4 5 5 4 4 4 5 5 6 7 8 7 7 8 8 7 6 6 6 7 6 5 4 3 3 4 6 6 4 3 2 1 1 2 2 4 7 7 6 7 7 6 5 5 4 5 6
11 11 11 10 10 9 9 9 9 10 10 11 11 11 11 10 9 9 9 9 9 10 10 9 9 8 7 6 6 6 6 5 4 4 5 7 7 6 5 4 4 4 5 5 5 6 6 7 7 8 8 8 8 8 8 9 9 8 7 7 6 5 5 4 3 4 5 5 5 3 1 1 1 2 2 4 5 7 7 7 6 6 5 4 2 1 3
9 9 9 9 8 8 9 9 10 10 11 11 11 11 10 10 9 9 9 9 9 8 7 6 6 6 5 5 5 5 6 5 4 3 4 5 5 5 4 4 5 5 6 6 7 7 8 9 10 10 10 10 9 9 9 9 10 9 8 7 6 6 6 5 4 4 4 5 5 4 2 1 0 1 2 3 5 6 6 6 6 6 5 4 3 2 2
7 7 8 9 9 9 9 10 10 11 11 11 10 10 11 11 11 10 9 9 9 7 6 6 6 6 5 5 5 5 5 5 4 4 3 4 4 6 7 6 6 6 6 7 8 9 9 9 10 11 12 11 10 9 9 9 9 9 8 8 7 7 6 6 5 5 5 5 5 4 3 1 1 2 3 4 5 5 5 6 7 7 7 6 5 4 4
7 8 9 11 11 11 10 10 10 11 10 9 9 8 9 9 9 9 9 8 8 7 6 6 5 5 4 4 5 6 5 5 5 4 3 3 4 6 8 8 6 5 6 7 8 9 8 7 8 10 11 11 11 10 9 8 9 9 9 9 8 8 8 7 7 6 6 6 6 5 4 3 2 3 4 5 5 6 7 8 9 9 9 8 6 5 5
8 10 11 12 12 11 10 10 10 10 9 8 6 5 5 6 7 8 8 8 7 6 6 5 4 4 3 3 4 5 5 5 5 6 5 4 3 4 6 8 8 5 4 5 6 6 6 5 5 7 8 9 9 9 8 8 8 9 9 9 9 9 9 9 9 9 8 8 7 6 6 5 4 4 5 6 6 7 8 9 10 10 10 9 7 6 6
10 11 12 12 11 10 9 9 10 10 9 6 5 4 4 4 4 4 5 6 5 5 4 5 4 3 3 3 3 4 5 5 6 6 7 6 4 2 3 5 7 7 7 7 7 6 6 5 3 3 4 5 6 7 7 7 8 8 9 8 8 9 9 10 10 10 10 9 8 8 7 6 5 5 5 6 7 8 9 9 10 10 10 10 9 8 7
10 11 11 10 9 7 7 8 8 7 7 5 5 3 2 3 3 3 1 2 4 3 3 3 4 4 4 5 4 4 5 6 6 6 6 6 5 4 2 1 4 6 7 8 8 8 8 7 6 4 2 2 4 6 7 7 7 7 6 6 7 7 8 9 10 10 10 10 10 9 9 8 7 7 7 7 8 8 8 8 9 10 10 10 10 9 9
9 9 8 7 5 5 6 6 6 5 5 5 4 3 1 0 0 1 2 1 2 3 2 2 4 4 3 3 3 2 2 4 5 5 5 5 5 5 5 3 2 2 4 5 7 8 9 9 8 7 5 2 1 3 4 5 5 4 4 5 6 6 6 6 7 8 9 10 10 11 10 10 9 9 9 9 9 9 8 8 8 9 9 9 9 9 9
Wind_Direction
131 142 141 108 102 91 42 29 22 13 15 23 29 6 352 341 278 286 348 170 167 158 141 112 98 105 103 96 95 97 95 91 91 90 87 86 85 83 89 102 108 104 105 118 133 140 142 142 145 157 174 186 194 193 189 192 198 201 202 202 200 197 194 194 198 199 198 196 186 171 159 156 164 167 165 171 175 171 168 163 157 152 144 139 135 129 129
136 136 128 116 121 119 49 32 30 28 32 39 40 28 5 358 344 298 164 139 84 68 96 89 87 98 99 97 97 93 90 87 87 84 77 74 76 76 75 85 97 100 102 112 123 130 134 135 138 150 167 179 184 183 183 187 193 197 199 198 197 197 196 199 203 202 197 193 186 180 177 182 199 198 183 183 186 178 174 173 170 169 165 160 157 150 142
153 127 128 124 121 124 75 37 29 26 33 38 29 18 10 6 8 143 144 125 67 37 70 90 93 92 88 86 85 80 77 81 86 84 77 73 75 77 78 85 97 102 104 109 114 119 124 132 139 149 162 169 170 171 177 184 190 194 197 196 197 200 201 201 202 199 196 193 188 189 196 205 213 206 193 193 195 186 180 181 183 183 179 175 174 169 165
189 101 104 128 130 136 95 38 23 15 20 22 360 1 14 354 345 127 137 131 99 82 89 89 85 80 78 73 69 71 72 74 81 81 78 76 75 76 79 85 96 103 106 108 110 113 118 126 135 142 151 156 157 166 176 180 185 192 196 196 195 195 195 196 197 196 196 195 190 189 196 204 206 198 192 195 197 192 188 188 191 193 189 185 185 186 185
190 84 15 346 147 168 147 36 15 353 0 15 7 13 13 348 331 276 179 131 122 131 117 96 85 76 72 65 61 68 72 72 77 81 81 81 80 80 80 84 92 97 100 104 109 113 115 117 122 130 141 148 150 159 169 173 177 184 188 191 191 189 189 192 193 193 193 193 194 195 199 204 202 194 193 197 198 195 194 196 201 204 204 200 199 200 200
206 44 7 227 215 247 188 72 5 329 331 12 21 25 6 349 335 11 79 107 118 126 120 108 103 89 76 73 72 73 74 76 81 83 84 86 87 87 86 85 87 90 92 99 107 112 113 114 118 124 132 138 139 145 154 163 168 171 171 176 179 179 181 185 186 186 186 189 195 199 199 198 195 192 194 197 196 194 194 197 202 207 210 212 213 214 214
89 94 155 190 208 310 176 146 4 348 315 344 340 290 12 5 4 79 104 115 110 101 103 107 108 102 92 85 79 74 74 82 89 87 85 88 90 89 88 85 84 85 89 96 103 108 110 114 118 122 124 128 132 135 141 149 155 159 160 160 160 160 161 165 169 172 178 185 189 191 191 188 185 185 186 185 185 186 189 192 196 201 205 210 215 217 219
110 143 147 162 158 50 85 161 11 8 341 342 335 229 26 14 3 95 117 118 107 105 109 109 109 106 97 83 72 69 77 88 94 94 92 95 97 95 93 91 88 87 88 92 97 100 103 107 111 115 118 122 124 124 126 129 133 139 144 143 142 143 143 144 149 155 165 173 172 171 174 176 178 179 179 179 179 181 187 193 196 197 199 201 207 212 216
125 123 89 111 153 105 48 15 7 8 338 331 327 279 18 13 9 104 121 120 116 115 114 114 114 108 95 77 57 60 75 88 95 98 101 102 102 101 100 98 95 94 93 93 94 96 97 97 99 103 110 115 116 115 116 118 120 125 129 127 125 129 130 130 134 138 143 150 153 157 165 171 178 179 173 174 177 180 191 200 201 199 197 195 199 205 212
299 121 110 111 163 120 24 344 342 355 330 311 300 259 16 7 15 101 122 117 119 123 125 128 129 111 90 71 41 56 73 86 93 96 99 102 104 105 104 102 102 102 101 100 100 101 101 100 99 101 104 107 107 107 107 108 110 110 112 112 112 114 116 118 122 124 127 132 135 144 160 173 182 184 178 178 182 182 188 197 201 201 199 197 203 209 214
71 97 102 74 81 90 353 331 324 328 324 297 274 217 81 358 4 95 124 120 120 125 124 126 134 122 105 108 73 71 80 88 92 91 91 97 102 104 104 104 106 105 103 102 101 100 101 103 104 107 108 106 104 103 102 103 103 99 99 102 104 106 107 110 116 121 130 135 123 119 136 152 160 171 183 205 211 204 200 205 209 208 205 206 212 216 222
84 91 93 77 69 43 343 325 319 323 321 215 203 170 55 350 356 103 124 119 118 119 112 98 65 47 114 124 113 99 95 95 95 92 88 92 97 100 101 103 104 103 102 100 97 94 94 98 101 104 107 106 103 100 100 101 99 95 92 92 94 97 100 103 106 110 120 134 131 119 126 127 117 119 137 174 206 225 244 251 247 239 238 241 238 233 243
57 74 99 98 61 22 334 320 318 320 299 176 151 1 337 336 24 124 120 97 97 102 112 111 98 94 110 116 114 109 103 97 93 86 83 88 95 100 102 102 102 101 99 96 92 91 91 93 95 96 98 99 97 97 99 97 92 89 87 85 83 83 86 89 91 93 93 97 108 117 114 86 78 64 80 138 184 217 248 263 262 255 256 262 260 256 266
32 63 101 100 101 45 341 329 324 329 54 152 13 353 310 338 108 124 111 93 104 102 101 109 115 118 119 118 117 112 104 97 89 83 81 85 90 96 100 101 102 101 97 94 92 90 88 87 86 86 87 88 88 89 88 84 80 79 79 78 77 73 71 70 71 71 67 59 60 58 34 13 356 330 323 309 275 258 258 263 264 261 262 266 265 265 272
25 67 60 63 101 346 340 336 333 6 22 19 32 25 57 99 107 109 101 102 113 112 106 107 114 119 118 115 111 105 99 95 91 88 88 87 88 93 94 96 98 99 98 96 93 91 88 84 80 77 78 81 81 79 77 73 70 69 67 64 63 64 64 62 58 56 53 46 40 36 29 17 0 342 330 318 307 299 288 281 280 276 272 272 273 275 277
14 59 49 49 2 323 338 348 2 8 2 2 145 79 96 107 106 104 100 101 111 116 114 113 114 114 111 109 107 104 101 100 100 98 93 87 86 87 86 88 92 94 95 96 95 93 89 84 78 71 69 74 78 76 73 69 67 67 67 65 63 63 63 62 59 55 48 40 34 29 24 16 7 354 340 329 318 307 299 292 286 281 278 276 276 277 277
58 72 71 63 15 346 353 12 31 24 41 89 123 124 116 110 111 115 112 110 115 116 114 113 112 111 111 111 110 110 110 113 115 109 99 91 85 81 78 80 80 81 86 90 90 88 82 76 71 65 61 64 70 72 71 69 67 68 70 72 73 71 67 62 57 50 42 33 26 21 15 6 357 344 332 327 321 313 308 304 297 294 292 290 289 287 286
86 76 63 49 35 25 25 40 58 74 88 97 108 117 116 116 123 127 122 119 118 116 114 114 113 114 117 116 113 111 114 118 120 113 104 97 89 82 80 78 73 72 77 79 79 77 73 66 60 57 53 54 61 67 69 68 68 70 74 77 78 76 71 66 59 51 43 34 25 16 8 1 352 341 333 327 320 314 309 305 303 303 301 300 300 298 297
110 78 47 32 37 39 42 60 74 83 89 91 92 100 109 117 122 124 122 120 119 117 116 117 119 122 123 120 116 115 114 114 112 108 101 95 90 86 83 79 73 69 68 68 68 69 69 63 55 50 48 49 53 58 61 61 61 63 67 71 72 69 66 61 55 49 40 32 24 14 4 357 349 341 336 328 323 320 316 312 311 310 308 306 304 303 304
74 78 56 54 64 64 64 74 83 88 93 94 93 94 100 106 110 113 116 116 116 119 120 120 123 127 127 122 120 119 115 111 108 105 100 96 93 90 87 81 75 69 67 68 69 68 68 65 57 50 49 50 52 54 56 57 55 53 56 59 59 56 52 48 43 37 31 24 18 10 3 354 347 345 340 330 325 324 322 324 326 324 320 317 313 312 313
87 93 106 101 86 74 69 77 92 103 105 103 101 100 99 101 104 109 113 114 114 117 119 121 124 127 128 126 123 119 117 117 114 108 103 100 96 94 93 89 83 76 72 70 70 72 72 67 58 49 45 44 49 51 53 54 52 50 55 58 55 52 48 43 37 31 25 19 13 8 4 356 349 351 349 338 333 331 329 329 329 322 318 316 314 316 319
103 111 144 144 110 86 84 94 107 114 112 107 106 105 103 103 106 109 115 122 123 120 118 120 121 121 125 129 128 120 116 115 111 102 94 88 84 83 87 90 88 82 77 71 66 69 70 64 56 44 33 36 55 59 58 57 51 48 53 57 54 52 47 40 34 28 23 17 11 9 9 6 360 359 358 351 344 339 335 332 327 322 322 326 328 330 335
96 118 136 135 118 110 120 125 122 119 114 107 105 105 104 104 107 108 111 120 130 134 133 131 125 119 121 126 127 120 114 107 98 89 79 68 60 58 64 72 74 74 77 71 62 57 51 40 32 23 14 28 96 81 70 67 56 50 52 53 50 48 43 35 30 25 21 17 14 12 13 13 13 16 20 12 359 350 346 344 341 339 340 344 346 345 348
98 114 124 123 118 121 131 135 129 123 117 108 105 105 104 102 103 105 105 110 124 137 147 154 158 149 139 138 138 128 112 100 89 78 67 53 42 41 51 59 54 54 64 56 43 31 12 354 347 355 0 64 153 118 88 76 59 50 49 46 44 42 37 31 26 23 21 19 17 16 16 17 18 27 45 49 44 35 21 3 352 349 348 351 353 354 353
109 115 120 120 120 123 127 130 128 124 120 114 109 109 107 100 94 93 95 101 109 123 143 157 165 168 163 154 144 127 105 95 85 70 54 36 25 34 59 67 44 20 359 350 344 331 339 341 327 301 281 200 178 158 101 65 53 45 41 41 38 34 30 26 21 19 19 18 16 17 19 20 19 19 26 40 58 69 59 29 3 354 356 1 3 3 1
113 120 121 119 120 123 125 128 129 125 118 111 106 104 100 93 85 79 81 90 95 97 109 129 143 157 166 162 143 129 113 81 60 40 19 13 20 44 73 83 38 336 315 324 324 307 318 333 322 274 219 187 187 187 168 56 43 33 30 38 36 28 24 22 17 14 16 16 15 18 22 25 27 30 31 34 45 58 59 46 29 17 14 14 9 3 359
118 125 124 120 123 127 128 129 132 132 124 109 99 92 84 79 79 80 84 90 93 95 103 123 146 164 176 177 157 148 136 40 18 342 340 358 12 34 41 292 299 299 297 305 314 307 311 326 325 248 173 174 190 191 193 282 9 18 22 34 33 25 21 19 16 13 14 14 17 24 28 30 35 40 41 39 42 44 40 33 28 22 17 14 8 1 353
120 121 118 118 123 129 132 136 144 151 141 116 102 93 79 73 76 83 87 90 91 87 100 145 173 193 206 206 196 198 243 279 294 297 316 333 325 304 298 294 293 296 295 298 304 302 304 318 319 213 177 178 188 191 201 253 298 354 14 28 29 23 20 18 15 12 11 10 15 24 30 35 39 42 41 39 40 38 31 23 19 13 7 1 359 354 347
115 96 98 111 115 118 132 146 158 170 171 153 142 122 87 70 66 66 66 73 78 68 55 188 198 220 229 225 223 233 240 255 275 282 293 303 298 291 291 289 288 289 289 291 296 295 295 307 309 232 193 186 190 199 209 227 277 333 8 25 23 19 18 15 12 10 7 4 7 22 32 36 37 36 36 35 33 28 21 15 9 3 357 351 348 346 344
126 101 119 122 103 89 97 144 177 197 206 202 198 188 104 358 359 9 353 328 322 296 265 237 231 240 238 229 229 243 256 270 279 281 290 298 296 290 289 286 283 284 285 285 288 289 288 295 299 254 207 195 195 204 209 218 287 328 4 17 13 12 13 10 7 7 4 359 2 22 39 39 34 31 29 26 21 16 10 3 359 356 353 351 350 352 352
210 188 168 152 104 58 25 339 246 248 263 272 274 281 293 306 323 329 318 308 302 281 252 236 242 248 236 224 238 263 271 279 288 295 301 302 297 294 294 290 285 283 281 279 281 282 280 284 290 258 215 203 202 210 213 222 290 321 351 6 3 5 7 5 3 4 1 358 1 21 47 42 31 25 23 15 9 5 2 358 355 355 356 357 359 358 355
219 206 194 190 206 308 315 309 293 290 299 307 309 315 331 346 345 332 317 311 307 282 252 240 238 227 205 203 237 266 275 287 302 308 308 305 303 302 302 299 293 287 281 276 275 273 270 271 270 245 215 206 207 216 220 225 275 303 333 355 356 358 2 1 360 359 357 352 354 4 34 42 21 14 10 2 356 356 357 357 1 10 16 13 9 4 0
198 179 151 202 276 310 315 306 300 304 320 357 32 39 31 18 3 343 324 312 298 270 256 243 214 194 190 204 237 264 279 298 314 317 315 315 314 312 309 305 300 294 288 277 268 263 261 258 248 228 213 206 208 215 217 221 252 277 308 341 346 353 358 356 354 355 354 346 340 337 333 340 5 8 1 355 354 354 355 1 28 47 40 27 19 15 13
181 136 56 17 325 321 324 315 307 307 310 351 26 31 24 13 4 350 333 320 305 256 227 204 191 191 201 223 251 271 290 307 320 323 323 323 323 322 320 320 317 316 311 295 270 255 250 245 234 218 208 204 206 210 210 215 237 253 278 325 339 348 353 352 351 354 352 342 331 321 311 303 303 7 357 357 359 356 354 13 73 73 52 39 36 34 28
234 262 345 347 333 327 328 334 341 328 305 295 326 355 6 4 358 346 328 319 306 194 184 190 197 208 222 240 261 279 294 308 320 327 329 330 331 332 336 339 336 331 328 321 296 267 251 241 231 215 203 201 203 204 204 213 228 239 261 311 335 344 348 350 352 354 354 350 340 325 309 276 210 160 12 8 2 355 355 32 92 79 62 56 52 46 41
334 319 328 334 333 325 313 303 305 305 295 292 308 335 354 355 348 336 321 308 284 239 216 211 218 229 237 248 266 281 295 307 321 334 338 338 336 334 335 336 334 332 334 334 324 304 260 224 211 201 195 195 197 197 204 219 229 232 250 294 329 341 348 351 352 355 1 0 353 345 337 189 169 138 37 20 2 353 359 56 93 76 65 64 58 50 46
348 335 330 329 324 315 303 288 282 282 283 290 307 332 344 340 332 325 316 306 290 266 246 236 239 246 249 253 263 277 293 305 321 339 346 344 341 336 333 331 331 338 349 351 345 2 112 149 170 179 183 186 189 195 211 228 229 224 235 273 322 342 352 355 354 356 1 1 359 8 70 136 150 133 70 31 360 354 6 76 95 72 61 64 62 57 51
2 351 344 336 324 314 307 296 283 277 278 287 303 321 324 320 313 310 306 300 290 276 262 255 255 255 251 251 261 277 291 297 309 337 348 348 344 340 337 335 335 341 357 24 56 92 112 126 144 160 172 181 191 207 228 233 222 213 215 217 258 350 1 1 358 357 359 2 8 33 115 141 138 117 73 33 0 355 11 89 99 72 61 74 77 69 60
3 357 349 338 326 314 304 291 276 272 280 287 294 303 306 303 300 298 294 287 280 277 276 275 274 265 254 253 264 279 283 281 294 328 343 345 344 341 337 336 341 350 15 75 100 110 120 130 143 157 174 194 213 231 240 230 216 209 204 195 202 351 3 5 6 4 2 7 21 44 96 130 131 115 58 22 5 359 22 95 96 72 68 84 89 81 68
322 326 325 321 315 306 293 280 271 274 280 284 286 291 294 295 293 292 285 276 271 274 280 286 286 279 268 264 270 274 268 267 284 315 331 337 339 338 332 331 337 348 12 88 125 131 134 144 160 177 202 228 243 247 242 230 220 214 202 190 191 311 350 2 9 11 8 15 36 58 92 121 130 130 24 17 16 23 78 103 89 71 72 84 90 84 73
295 298 301 302 300 295 290 284 280 280 282 286 290 290 288 288 289 290 287 278 270 269 273 277 282 286 281 274 268 260 254 256 274 299 317 329 333 331 328 327 330 335 343 2 168 166 166 178 195 206 219 246 264 262 248 232 221 211 200 191 191 252 324 353 9 12 10 18 44 63 85 101 98 56 349 352 34 95 109 105 88 74 74 78 80 80 74
280 281 285 287 288 289 290 288 285 281 281 288 297 298 293 290 289 291 290 285 277 271 268 266 271 282 287 281 271 262 257 257 268 289 305 319 325 326 326 329 329 330 328 306 255 230 215 215 222 227 237 259 278 280 270 249 216 198 193 191 196 234 291 332 2 10 11 19 44 57 66 82 79 12 338 236 155 139 127 117 104 90 82 76 73 74 71
286 283 281 279 279 283 287 289 287 284 280 282 289 293 291 290 291 293 292 287 281 275 271 268 271 276 281 279 272 263 256 253 265 290 303 311 318 323 326 325 318 319 323 310 278 265 259 247 237 236 243 258 271 274 270 258 232 204 197 198 207 237 270 301 346 5 10 17 36 47 49 63 43 356 9 145 157 155 145 135 122 107 98 92 80 69 62
300 298 294 289 287 289 290 289 289 288 285 283 286 288 286 286 291 298 298 292 283 278 276 276 274 273 271 269 264 256 248 248 266 290 306 315 318 320 321 318 308 305 312 313 295 278 272 263 248 241 244 257 272 276 266 250 233 217 206 205 215 235 255 272 314 350 3 11 22 32 35 41 34 29 69 142 161 168 164 151 137 124 120 114 91 65 53
308 306 305 302 300 299 299 296 295 295 293 291 291 291 287 284 290 299 301 296 290 286 283 278 272 267 262 260 255 245 237 238 252 281 309 324 328 321 309 307 313 309 305 303 298 286 275 265 256 250 249 256 271 278 267 246 232 223 215 210 217 233 244 254 282 322 342 355 5 11 12 17 48 69 104 151 177 193 194 180 160 147 145 143 126 70 35
313 311 312 314 315 314 313 309 306 303 300 295 291 286 281 280 285 291 294 294 295 293 283 271 269 268 261 252 246 238 233 232 241 269 300 321 338 338 317 294 289 295 297 295 293 289 278 264 256 254 254 257 266 276 270 248 233 224 215 210 215 228 236 243 263 292 314 330 341 349 352 357 125 136 149 171 194 215 220 205 183 174 176 185 201 231 303
315 316 318 320 318 315 313 312 311 309 305 298 289 282 278 278 281 284 286 290 292 286 271 268 272 271 260 249 241 235 232 237 249 270 290 310 337 351 348 323 291 282 288 292 295 296 288 270 257 253 253 254 259 269 267 249 234 224 215 209 212 222 230 238 254 274 288 299 309 319 327 312 219 211 204 196 203 221 230 218 205 200 200 203 211 224 255
316 319 320 319 314 309 305 305 307 309 308 303 296 290 287 286 283 280 279 281 281 274 267 267 265 256 252 252 244 236 237 246 256 267 287 308 324 341 350 347 328 299 288 295 304 309 303 282 260 250 250 252 256 260 259 246 231 219 210 207 212 221 230 239 250 261 267 272 280 292 301 291 246 228 222 213 212 218 225 227 227 226 221 215 214 222 239
317 319 319 317 314 307 300 297 302 307 308 304 302 306 309 301 288 276 269 268 269 266 259 249 238 232 239 243 234 234 244 259 264 266 273 285 303 333 353 360 1 354 333 324 329 333 330 310 275 255 250 251 251 248 242 232 218 207 205 209 217 225 234 243 250 252 251 252 258 267 276 277 263 242 229 224 221 220 224 229 235 238 237 235 237 245 256
317 320 320 317 312 304 296 294 299 305 304 295 286 300 325 332 320 291 263 247 242 240 228 213 207 219 238 242 243 253 264 274 278 275 270 264 261 283 338 2 13 20 21 19 17 17 17 14 356 298 259 241 228 220 215 209 200 199 205 215 226 234 241 247 249 248 244 242 243 248 256 261 261 251 241 234 229 228 228 230 233 238 243 249 254 260 270
319 322 323 323 320 313 307 304 304 305 304 293 279 284 330 9 20 20 9 208 204 203 203 209 223 243 257 262 269 277 276 274 276 278 271 260 253 250 256 342 11 17 24 30 32 31 31 34 33 22 352 225 200 193 189 188 189 198 214 233 247 254 254 251 246 242 238 234 231 232 240 249 253 252 248 245 244 241 238 236 238 241 246 252 257 263 273
322 325 328 335 342 341 337 330 318 308 303 293 278 264 252 240 24 40 47 123 194 197 210 246 257 257 257 260 267 279 277 274 275 275 272 266 259 247 234 233 275 338 11 27 31 31 31 32 33 32 32 43 138 167 168 173 184 205 239 263 272 273 266 254 244 239 235 232 229 229 233 240 246 248 245 244 248 250 249 245 244 246 250 254 259 265 274